sat.trackr.live / text

‹ back to catalog

STARLINK-32416

NORAD 61589 · 2024-187R

PAYLOAD ACTIVE UNKNOWN

§ Identity

Operator
Country
US
Launch date
2024-10-18
Launch site
AFETR
Launch vehicle
Mass (kg)
RCS (m²)

Purposes: comms

External: N2YO · Heavens-Above · Gunter

§ Orbital elements

Epoch: 2026-09-21T06:37:46.782624Z

Period
93.85 min
Inclination
53.1634°
Eccentricity
0.0001754
Mean motion
15.34395612 rev/d
Perigee alt
461.5 km
Apogee alt
463.9 km
Semi-major
6,840.9 km
B*
-2.5465e-5
RAAN
217.7472°
Arg perigee
71.8247°
Mean anomaly
288.2946°
Rev number
10,929

§ Raw data

STARLINK-324161 61589U 24187R   26264.27623591 -.00001237  00000+0 -25465-4 0  99962 61589  53.1634 217.7472 0001754  71.8247 288.2946 15.34395612109298

JSON: /api/v1/satellites/61589 · /tle

For live sub-satellite position, see the globe view (requires WebGL).

§ Visibility from observer

Set your observer location to see the next 7 days of passes ≥ 10°. The values pass through the URL so the page stays shareable.

No JS? Fill the form by hand. The geolocation button needs JavaScript.